AirNav   Textron
 
 1529 users online  

PA74 Gusler Airport
Elizabethville/Halifax, Pennsylvania, USA


FAA INFORMATION EFFECTIVE 07 DECEMBER 2017

Location

FAA Identifier: PA74
Lat/Long: 40-27-55.3090N / 076-50-23.8990W
40-27.921817N / 076-50.398317W
40.4653636 / -76.8399719
(estimated)
Elevation: 700 ft. / 213 m (estimated)
Variation: 10W (1985)
From city: 5 miles S of central business district of the associated city
Time zone: UTC -5 (UTC -4 during Daylight Saving Time)
Zip code: 17032

Airport Operations

Airport use: Private use. Permission required prior to landing
Activation date: 10/1964
Control tower: no
ARTCC: NEW YORK CENTER
FSS: WILLIAMSPORT FLIGHT SERVICE STATION
Attendance: UNATNDD
Wind indicator: yes
Segmented circle: no

Airport Communications

WX ASOS at MUI (13 nm E): 124.175 (717-861-6493)
WX ASOS at CXY (15 nm S): PHONE 717-770-0880
WX ASOS at MDT (17 nm S): PHONE 717-944-1372

Nearby radio navigation aids

VOR radial/distance  VOR name  Freq  Var
RAVr255/12.2RAVINE VORTAC114.6011W
HARr057/14.3HARRISBURG VORTAC112.5010W
SEGr182/19.6SELINSGROVE VOR/DME110.4008W
LRPr319/32.6LANCASTER VOR/DME117.3009W
MIPr202/34.4MILTON VORTAC109.2009W

 
NDB name  Hdg/Dist  Freq  Var  ID
BELLGROVE288/13.232810WBZJ -... --.. .---
ENOLA023/13.420411WMD -- -..

Airport Services

Fuel available: 100LL
Airframe service: NONE
Powerplant service: NONE

Runway Information

Runway E/W

Dimensions: 2200 x 100 ft. / 671 x 30 m
Surface: turf
RUNWAY E  RUNWAY W
Traffic pattern: leftleft

Airport Ownership and Management from official FAA records

Ownership: Privately-owned
Owner: GRACE GUSLER
1722 POWELLS VALLEY ROAD
HALIFAX, PA 17032
Phone 717-362-9245
Manager: GREG L. GUSLER
3245 POWELLS VALLEY ROAD
HALIFAX, PA 17032
Phone 717-362-8655

Airport Operational Statistics

Aircraft based on the field: 2
Helicopters: 2
    

Additional Remarks

IDENTIFYING LANDMARKS: CHURCH & TEE RD SW CORNER OF FLD. POND NE BNDRY ADJ TO RY. RY BEHIND LARGE BARN & SILOS.

Instrument Procedures

There are no published instrument procedures at PA74.

Some nearby airports with instrument procedures:

KMUI - Muir Army Airfield (Fort Indiantown Gap) (13 nm E)
74N - Bendigo Airport (14 nm NE)
KCXY - Capital City Airport (15 nm S)
58N - Reigle Field Airport (16 nm SE)
KMDT - Harrisburg International Airport (17 nm S)
 
Loc | Ops | Rwys | IFR | FBO | Links
Com | Nav | Svcs | Stats | Notes


 
Area around PA74 (Gusler Airport)
 
Road maps at: MapQuest Bing Google
 
Aerial photo
No photo
 
Sectional chart

 
Airport distance calculator
Flying to Gusler Airport? Find the distance to fly.

From to PA74

Sunrise and sunset
Times for 11-Dec-2017
 Local
(UTC-5)
 Zulu
(UTC)
Morning civil twilight06:5111:51
Sunrise07:2112:21
Sunset16:4021:40
Evening civil twilight17:1022:10

Current date and time
Zulu (UTC)  11-Dec-2017 17:41:53
Local (UTC-5)  11-Dec-2017 12:41:53
 
METAR
KMUI 
13nm E 
111656Z AUTO 27009KT 10SM BKN044 03/M07 A3002 RMK AO2 SLP173 T00281069 $
KCXY 
15nm S 
111656Z 26008KT 10SM SCT048 06/M07 A3003 RMK AO2 SLP174 T00561072
KMDT 
16nm S 
111656Z 29006KT 10SM SCT049 05/M06 A3003 RMK AO2 SLP171 T00501056
KSEG 
21nm N 
111653Z AUTO 28006KT 10SM OVC041 02/M06 A3003 RMK AO2 SLP173 T00221061
TAF
KMUI 
13nm E 
111100Z 1111/1217 VRB06KT 9999 FEW200 QNH3000INS BECMG 1113/1114 28012KT 9999 FEW200 QNH2995INS BECMG 1120/1121 VRB06KT 9999 FEW020 BKN070 620706 QNH2951INS BECMG 1211/1212 15009KT 9999 OVC007 620205 QNH2946INS BECMG 1214/1215 17009KT 9999 FEW007 BKN015 620157 QNH2941INS TX04/1120Z TN00/1111Z
KMDT 
16nm S 
111519Z 1115/1212 29006KT P6SM SCT050 FM112200 16005KT P6SM BKN100
NOTAMs
Click for the latest NOTAMs
NOTAMs are issued by the DoD/FAA and will open in a separate window not controlled by AirNav.

 

 
 

Would you like to see your business listed on this page?

 If your business provides an interesting product or service to pilots, flight crews, aircraft, or users of the Gusler Airport, you should consider listing it here.  To start the listing process, click on the button below
 
Add a business
 

Other Pages about Gusler Airport

Update a link
 
Copyright © AirNav, LLC. All rights reserved. Privacy Policy  Contact